Terug naar catalogus

FENGYUN 1C DEB

ActiefSSO
NORAD 31328·DEBRIS·🇨🇳 China

Gelanceerd May 10, 1999 vanaf Taiyuan Satellite Launch Center

Loading…

Volgende Passages (komende 24 uur)

TLE

VersSource: Space-Track

Epoch: Sep 14, 2026, 15:49 UTC

1 31328U 99025BQG 26257.65911853  .00000080  00000-0  45411-4 0  9999
2 31328  98.5179 229.6304 0105125 124.7953 236.3176 14.29060269 13729

Volg FENGYUN 1C DEB in realtime met AllMySat

Download on the App Store